Easton, MD

6:54 PM EDT on May 23, 2017 (GMT -0400)
Easton / Newnam

Weather History for KESN - August, 2013

Change the Weather History Date:

Wednesday, August 14, 2013

  Actual Average Record
Temperature  
Mean Temperature 66 °F -  
Max Temperature 73 °F 87 °F 96 °F (2016)
Min Temperature 59 °F 66 °F 52 °F (1954)
Cooling Degree Days 1    
Growing Degree Days 16 (Base 50)    
Moisture  
Dew Point 58 °F    
Average Humidity 76    
Maximum Humidity 100    
Minimum Humidity 50    
Precipitation  
Precipitation 0.02 in - - ()
Sea Level Pressure  
Sea Level Pressure 29.95 in    
Wind  
Wind Speed 5 mph (North)    
Max Wind Speed 17 mph    
Max Gust Speed 28 mph    
Visibility 10 miles    
Events Rain    
Averages and records for this station are not official NWS values.
T = Trace of Precipitation, MM = Missing Value Source: NWS Daily Summary

Daily Weather History Graph

Daily Weather History Graph

Search for Another Location

Airport or City:

Trip Planner

Search our weather history database for the weather conditions in past years. The results will help you decide how hot, cold, wet, or windy it might be!

Date:

Astronomy

Aug. 14, 2013 Rise Set
Actual Time 6:17 AM EDT 7:59 PM EDT
Civil Twilight 5:48 AM EDT 8:28 PM EDT
Nautical Twilight 5:14 AM EDT 9:02 PM EDT
Astronomical Twilight 4:37 AM EDT 9:39 PM EDT
Moon 2:08 PM EDT (8/14) No Moon Set
Length of Visible Light 14h 39m
Length of Day
13h 42m
First Quarter, 52% of the Moon is Illuminated
Aug 14
First Quarter
Aug 20
Full
Aug 28
Last Quarter
Sep 5
New
Sep 12
First Quarter

Hourly Weather History & Observations

Time (EDT) Temp. Dew Point Humidity Pressure Visibility Wind Dir Wind Speed Gust Speed Precip Events Conditions
12:15 AM 68.9 °F 68.9 °F 100% 29.83 in 7.0 mi Calm Calm - N/A Rain Light Rain
12:35 AM 68.9 °F 68.9 °F 100% 29.83 in 7.0 mi Calm Calm - 0.01 in Rain Light Rain
12:55 AM 68.9 °F 68.9 °F 100% 29.84 in 5.0 mi NNW 3.5 mph - 0.01 in   Overcast
1:15 AM 68.9 °F 68.9 °F 100% 29.85 in 5.0 mi NNE 5.8 mph - N/A Rain Light Rain
1:35 AM 69.6 °F 69.6 °F 100% 29.84 in 10.0 mi NE 6.9 mph - N/A Rain Light Rain
1:55 AM 68.9 °F 68.9 °F 100% 29.85 in 10.0 mi NE 3.5 mph - 0.01 in Rain Light Rain
2:15 AM 68.4 °F 68.4 °F 100% 29.85 in 10.0 mi NNE 3.5 mph - N/A   Overcast
2:35 AM 68.5 °F 68.5 °F 100% 29.86 in 10.0 mi North 5.8 mph - N/A   Overcast
2:55 AM 68.4 °F 68.4 °F 100% 29.85 in 10.0 mi Calm Calm - N/A   Mostly Cloudy
3:15 AM 68.0 °F 65.7 °F 92% 29.86 in 10.0 mi NNE 4.6 mph - N/A   Mostly Cloudy
3:35 AM 67.3 °F 65.5 °F 94% 29.86 in 10.0 mi North 4.6 mph - N/A   Overcast
3:55 AM 67.1 °F 64.6 °F 92% 29.86 in 10.0 mi NNE 5.8 mph - N/A   Overcast
4:15 AM 66.4 °F 63.7 °F 91% 29.87 in 10.0 mi NNE 5.8 mph - N/A   Mostly Cloudy
4:35 AM 65.7 °F 63.0 °F 91% 29.87 in 10.0 mi NNE 6.9 mph - N/A   Scattered Clouds
4:55 AM 65.1 °F 61.5 °F 88% 29.88 in 10.0 mi NNE 5.8 mph - N/A   Scattered Clouds
5:15 AM 64.4 °F 59.5 °F 84% 29.89 in 10.0 mi North 6.9 mph - N/A   Scattered Clouds
5:35 AM 64.4 °F 56.5 °F 75% 29.90 in 10.0 mi North 10.4 mph 17.3 mph N/A   Scattered Clouds
5:55 AM 63.5 °F 55.2 °F 74% 29.91 in 10.0 mi NNE 6.9 mph 16.1 mph N/A   Scattered Clouds
6:16 AM 62.2 °F 54.0 °F 74% 29.92 in 10.0 mi North 6.9 mph - N/A   Scattered Clouds
6:36 AM 62.6 °F 51.1 °F 66% 29.93 in 10.0 mi North 9.2 mph - N/A   Mostly Cloudy
6:46 AM 62.6 °F 50.0 °F 63% 29.94 in 10.0 mi North 12.7 mph 17.3 mph N/A   Scattered Clouds
6:56 AM 62.4 °F 50.0 °F 64% 29.94 in 10.0 mi North 6.9 mph 16.1 mph N/A   Scattered Clouds
7:16 AM 62.2 °F 49.8 °F 64% 29.95 in 10.0 mi North 9.2 mph - N/A   Scattered Clouds
7:36 AM 63.5 °F 50.2 °F 62% 29.97 in 10.0 mi North 6.9 mph - N/A   Scattered Clouds
7:42 AM 63.9 °F 50.7 °F 62% 29.97 in 10.0 mi North 5.8 mph - N/A   Clear
7:48 AM 64.4 °F 50.0 °F 59% 29.97 in 10.0 mi North 6.9 mph - N/A   Clear
8:46 AM 66.2 °F 50.0 °F 56% 29.99 in 10.0 mi North 11.5 mph 17.3 mph N/A   Clear
9:50 AM 66.2 °F 50.0 °F 56% 29.99 in 10.0 mi North 12.7 mph 21.9 mph N/A   Partly Cloudy
10:53 AM 69.8 °F 53.6 °F 56% 30.00 in 10.0 mi NW 13.8 mph 20.7 mph N/A   Scattered Clouds
11:51 AM 71.6 °F 53.6 °F 53% 30.01 in 10.0 mi NNW 15.0 mph 21.9 mph N/A   Scattered Clouds
11:56 AM 71.2 °F 53.4 °F 53% 30.01 in 10.0 mi North 13.8 mph 21.9 mph N/A   Clear
12:16 PM 71.6 °F 52.9 °F 52% 30.02 in 10.0 mi North 9.2 mph 21.9 mph N/A   Clear
12:53 PM 73.4 °F 53.6 °F 50% 30.02 in 10.0 mi NNW 15.0 mph 27.6 mph N/A   Mostly Cloudy
1:53 PM 73.4 °F 53.6 °F 50% 30.01 in 10.0 mi NW 17.3 mph 19.6 mph N/A   Mostly Cloudy
2:50 PM 73.4 °F 55.4 °F 53% 30.00 in 10.0 mi North 12.7 mph 19.6 mph N/A   Mostly Cloudy
3:50 PM 73.4 °F 53.6 °F 50% 30.00 in 10.0 mi North 6.9 mph 20.7 mph N/A   Mostly Cloudy
4:50 PM 73.4 °F 55.4 °F 53% 30.01 in 10.0 mi NNW 10.4 mph 18.4 mph N/A   Mostly Cloudy
5:53 PM 73.4 °F 55.4 °F 53% 30.03 in 10.0 mi NNW 9.2 mph 17.3 mph N/A   Mostly Cloudy
6:50 PM 71.6 °F 55.4 °F 57% 30.03 in 10.0 mi North 6.9 mph - N/A   Mostly Cloudy
7:50 PM 66.2 °F 57.2 °F 73% 30.05 in 10.0 mi North 3.5 mph - N/A   Scattered Clouds
8:47 PM 64.4 °F 57.2 °F 77% 30.07 in 10.0 mi Calm Calm - N/A   Scattered Clouds
10:57 PM 60.1 °F 56.8 °F 89% 30.11 in 10.0 mi Calm Calm - N/A   Clear
11:18 PM 59.9 °F 58.1 °F 94% 30.11 in 10.0 mi Calm Calm - N/A   Scattered Clouds
11:38 PM 60.3 °F 57.9 °F 92% 30.12 in 10.0 mi Calm Calm - N/A   Clear
11:58 PM 59.0 °F 57.4 °F 94% 30.12 in 10.0 mi Calm Calm - N/A   Clear